Time,TemperatureF,DewpointF,PressureIn,WindDirection,WindDirectionDegrees,WindSpeedMPH,WindSpeedGustMPH,Humidity,HourlyPrecipIn,Conditions,Clouds,dailyrainin,SoftwareType,DateUTC
2013-06-06 00:01:00,55.1,46.0,29.96,ENE,67,2.0,2.0,71,0.00,,,0.00,Rainwise IP-100,2013-06-06 04:01:00,
2013-06-06 00:06:00,55.0,45.0,29.96,ENE,67,2.0,2.0,69,0.00,,,0.00,Rainwise IP-100,2013-06-06 04:06:00,
2013-06-06 00:11:00,54.9,46.0,29.95,ENE,67,2.0,3.0,70,0.00,,,0.00,Rainwise IP-100,2013-06-06 04:11:00,
2013-06-06 00:16:00,54.9,46.0,29.96,ENE,67,2.0,2.0,70,0.00,,,0.00,Rainwise IP-100,2013-06-06 04:16:00,
2013-06-06 00:21:00,54.7,45.0,29.96,ENE,67,2.0,2.0,70,0.00,,,0.00,Rainwise IP-100,2013-06-06 04:21:00,
2013-06-06 00:26:00,54.6,45.0,29.95,ENE,67,1.0,2.0,70,0.00,,,0.00,Rainwise IP-100,2013-06-06 04:26:00,
2013-06-06 00:31:00,54.4,43.0,29.95,ENE,67,1.0,2.0,65,0.00,,,0.00,Rainwise IP-100,2013-06-06 04:31:00,
2013-06-06 00:36:00,54.6,44.0,29.95,ENE,67,1.0,2.0,67,0.00,,,0.00,Rainwise IP-100,2013-06-06 04:36:00,
2013-06-06 00:41:00,54.6,44.0,29.95,ENE,67,0.0,2.0,68,0.00,,,0.00,Rainwise IP-100,2013-06-06 04:41:00,
2013-06-06 00:46:00,54.5,45.0,29.95,ENE,67,0.0,3.0,70,0.00,,,0.00,Rainwise IP-100,2013-06-06 04:46:00,
2013-06-06 00:51:00,54.6,44.0,29.94,ENE,67,2.0,2.0,68,0.00,,,0.00,Rainwise IP-100,2013-06-06 04:51:00,
2013-06-06 00:56:00,54.1,42.0,29.94,ENE,67,1.0,2.0,65,0.00,,,0.00,Rainwise IP-100,2013-06-06 04:56:00,
2013-06-06 01:01:00,53.9,42.0,29.94,ENE,67,2.0,2.0,64,0.00,,,0.00,Rainwise IP-100,2013-06-06 05:01:00,
2013-06-06 01:06:00,53.7,41.0,29.95,ENE,67,2.0,2.0,63,0.00,,,0.00,Rainwise IP-100,2013-06-06 05:06:00,
2013-06-06 01:11:00,53.5,40.0,29.95,ENE,67,1.0,2.0,61,0.00,,,0.00,Rainwise IP-100,2013-06-06 05:11:00,
2013-06-06 01:16:00,53.1,37.0,29.94,ENE,67,2.0,2.0,55,0.00,,,0.00,Rainwise IP-100,2013-06-06 05:16:00,
2013-06-06 01:21:00,52.8,36.0,29.94,ENE,67,1.0,2.0,53,0.00,,,0.00,Rainwise IP-100,2013-06-06 05:21:00,
2013-06-06 01:26:00,52.5,35.0,29.95,ENE,67,2.0,2.0,50,0.00,,,0.00,Rainwise IP-100,2013-06-06 05:26:00,
2013-06-06 01:31:00,52.3,32.0,29.94,ENE,67,1.0,2.0,46,0.00,,,0.00,Rainwise IP-100,2013-06-06 05:31:00,
2013-06-06 01:36:00,51.9,28.0,29.94,ENE,67,2.0,2.0,38,0.00,,,0.00,Rainwise IP-100,2013-06-06 05:36:00,
2013-06-06 01:41:00,52.2,29.0,29.94,ENE,67,2.0,2.0,40,0.00,,,0.00,Rainwise IP-100,2013-06-06 05:41:00,
2013-06-06 01:46:00,52.3,24.0,29.94,ENE,67,1.0,2.0,33,0.00,,,0.00,Rainwise IP-100,2013-06-06 05:46:00,
2013-06-06 01:51:00,52.2,23.0,29.94,ENE,67,2.0,2.0,31,0.00,,,0.00,Rainwise IP-100,2013-06-06 05:51:00,
2013-06-06 01:56:00,51.8,14.0,29.94,ENE,67,2.0,2.0,21,0.00,,,0.00,Rainwise IP-100,2013-06-06 05:56:00,
2013-06-06 02:01:00,51.2,8.0,29.94,ENE,67,2.0,2.0,15,0.00,,,0.00,Rainwise IP-100,2013-06-06 06:01:00,
2013-06-06 02:06:00,51.1,11.0,29.94,ENE,67,2.0,2.0,19,0.00,,,0.00,Rainwise IP-100,2013-06-06 06:06:00,
2013-06-06 02:11:00,51.1,8.0,29.94,ENE,67,2.0,3.0,15,0.00,,,0.00,Rainwise IP-100,2013-06-06 06:11:00,
2013-06-06 02:16:00,50.9,4.0,29.93,ENE,67,2.0,2.0,12,0.00,,,0.00,Rainwise IP-100,2013-06-06 06:16:00,
2013-06-06 02:21:00,50.9,-6.0,29.93,ENE,67,2.0,2.0,8,0.00,,,0.00,Rainwise IP-100,2013-06-06 06:21:00,
2013-06-06 02:26:00,50.5,-23.0,29.93,ENE,67,2.0,2.0,3,0.00,,,0.00,Rainwise IP-100,2013-06-06 06:26:00,
2013-06-06 02:31:00,50.3,-23.0,29.94,ENE,67,1.0,2.0,2,0.00,,,0.00,Rainwise IP-100,2013-06-06 06:31:00,
2013-06-06 02:36:00,49.9,-40.0,29.94,ENE,67,2.0,2.0,1,0.00,,,0.00,Rainwise IP-100,2013-06-06 06:36:00,
2013-06-06 02:41:00,49.6,-13.0,29.94,ENE,67,2.0,3.0,6,0.00,,,0.00,Rainwise IP-100,2013-06-06 06:41:00,
2013-06-06 02:46:00,49.3,-23.0,29.94,ENE,67,2.0,2.0,2,0.00,,,0.00,Rainwise IP-100,2013-06-06 06:46:00,
2013-06-06 02:51:00,49.3,-13.0,29.94,ENE,67,2.0,2.0,7,0.00,,,0.00,Rainwise IP-100,2013-06-06 06:51:00,
2013-06-06 02:56:00,48.9,-40.0,29.94,ENE,67,2.0,2.0,0,0.00,,,0.00,Rainwise IP-100,2013-06-06 06:56:00,
2013-06-06 03:01:00,48.6,-40.0,29.94,ENE,67,2.0,3.0,0,0.00,,,0.00,Rainwise IP-100,2013-06-06 07:01:00,
2013-06-06 03:06:00,48.5,-40.0,29.94,ENE,67,1.0,3.0,0,0.00,,,0.00,Rainwise IP-100,2013-06-06 07:06:00,
2013-06-06 03:11:00,48.4,-40.0,29.94,ENE,67,2.0,2.0,0,0.00,,,0.00,Rainwise IP-100,2013-06-06 07:11:00,
2013-06-06 03:16:00,48.0,-40.0,29.94,ENE,67,2.0,2.0,0,0.00,,,0.00,Rainwise IP-100,2013-06-06 07:16:00,
2013-06-06 03:21:00,47.8,-40.0,29.94,ENE,67,2.0,3.0,0,0.00,,,0.00,Rainwise IP-100,2013-06-06 07:21:00,
2013-06-06 03:26:00,47.6,-40.0,29.94,ENE,67,2.0,3.0,0,0.00,,,0.00,Rainwise IP-100,2013-06-06 07:26:00,
2013-06-06 03:31:00,47.4,-40.0,29.94,ENE,67,2.0,2.0,0,0.00,,,0.00,Rainwise IP-100,2013-06-06 07:31:00,
2013-06-06 03:36:00,47.5,-40.0,29.94,ENE,67,2.0,2.0,0,0.00,,,0.00,Rainwise IP-100,2013-06-06 07:36:00,
2013-06-06 03:41:00,47.4,-40.0,29.94,ENE,67,2.0,3.0,0,0.00,,,0.00,Rainwise IP-100,2013-06-06 07:41:00,
2013-06-06 03:46:00,47.2,-40.0,29.94,ENE,67,2.0,2.0,0,0.00,,,0.00,Rainwise IP-100,2013-06-06 07:46:00,
2013-06-06 03:51:00,46.8,-40.0,29.94,ENE,67,1.0,2.0,0,0.00,,,0.00,Rainwise IP-100,2013-06-06 07:51:00,
2013-06-06 03:56:00,46.7,-40.0,29.94,ENE,67,2.0,2.0,0,0.00,,,0.00,Rainwise IP-100,2013-06-06 07:56:00,
2013-06-06 04:01:00,46.2,-40.0,29.94,ENE,67,1.0,2.0,0,0.00,,,0.00,Rainwise IP-100,2013-06-06 08:01:00,
2013-06-06 04:06:00,46.2,-40.0,29.94,ENE,67,2.0,2.0,0,0.00,,,0.00,Rainwise IP-100,2013-06-06 08:06:00,
2013-06-06 04:11:00,46.3,-40.0,29.94,ENE,67,2.0,2.0,0,0.00,,,0.00,Rainwise IP-100,2013-06-06 08:11:00,
2013-06-06 04:16:00,46.9,-40.0,29.94,ENE,67,2.0,2.0,0,0.00,,,0.00,Rainwise IP-100,2013-06-06 08:16:00,
2013-06-06 04:21:00,46.8,-40.0,29.94,ENE,67,2.0,2.0,0,0.00,,,0.00,Rainwise IP-100,2013-06-06 08:21:00,
2013-06-06 04:26:00,46.6,-40.0,29.94,ENE,67,2.0,2.0,0,0.00,,,0.00,Rainwise IP-100,2013-06-06 08:26:00,
2013-06-06 04:31:00,46.2,-40.0,29.94,ENE,67,2.0,2.0,0,0.00,,,0.00,Rainwise IP-100,2013-06-06 08:31:00,
2013-06-06 04:36:00,46.2,-40.0,29.94,ENE,67,1.0,2.0,0,0.00,,,0.00,Rainwise IP-100,2013-06-06 08:36:00,
2013-06-06 04:41:00,46.2,-40.0,29.94,ENE,67,1.0,2.0,0,0.00,,,0.00,Rainwise IP-100,2013-06-06 08:41:00,
2013-06-06 04:46:00,45.8,-40.0,29.94,ENE,67,1.0,2.0,0,0.00,,,0.00,Rainwise IP-100,2013-06-06 08:46:00,
2013-06-06 04:51:00,45.6,-40.0,29.94,ENE,67,2.0,2.0,0,0.00,,,0.00,Rainwise IP-100,2013-06-06 08:51:00,
2013-06-06 04:56:00,45.6,-40.0,29.94,ENE,67,1.0,2.0,0,0.00,,,0.00,Rainwise IP-100,2013-06-06 08:56:00,
2013-06-06 05:01:00,45.5,-40.0,29.94,ENE,67,2.0,2.0,0,0.00,,,0.00,Rainwise IP-100,2013-06-06 09:01:00,
2013-06-06 05:06:00,45.7,-40.0,29.94,ENE,67,1.0,2.0,0,0.00,,,0.00,Rainwise IP-100,2013-06-06 09:06:00,
2013-06-06 05:11:00,45.8,-40.0,29.94,ENE,67,1.0,2.0,0,0.00,,,0.00,Rainwise IP-100,2013-06-06 09:11:00,
2013-06-06 05:16:00,45.8,-40.0,29.93,ENE,67,1.0,2.0,0,0.00,,,0.00,Rainwise IP-100,2013-06-06 09:16:00,
2013-06-06 05:21:00,45.6,-40.0,29.93,ENE,67,1.0,2.0,0,0.00,,,0.00,Rainwise IP-100,2013-06-06 09:21:00,
2013-06-06 05:26:00,45.4,-40.0,29.93,ENE,67,2.0,2.0,0,0.00,,,0.00,Rainwise IP-100,2013-06-06 09:26:00,
2013-06-06 05:31:00,45.6,-40.0,29.94,ENE,67,1.0,2.0,0,0.00,,,0.00,Rainwise IP-100,2013-06-06 09:31:00,
2013-06-06 05:36:00,45.8,-40.0,29.94,ENE,67,1.0,2.0,0,0.00,,,0.00,Rainwise IP-100,2013-06-06 09:36:00,
2013-06-06 05:41:00,46.5,-40.0,29.94,ENE,67,1.0,2.0,0,0.00,,,0.00,Rainwise IP-100,2013-06-06 09:41:00,
2013-06-06 05:46:00,46.9,-40.0,29.94,ENE,67,2.0,2.0,0,0.00,,,0.00,Rainwise IP-100,2013-06-06 09:46:00,
2013-06-06 05:51:00,47.3,-40.0,29.95,ENE,67,2.0,2.0,0,0.00,,,0.00,Rainwise IP-100,2013-06-06 09:51:00,
2013-06-06 05:56:00,47.3,-40.0,29.95,ENE,67,2.0,2.0,0,0.00,,,0.00,Rainwise IP-100,2013-06-06 09:56:00,
2013-06-06 06:01:00,47.2,-40.0,29.95,ENE,67,2.0,2.0,0,0.00,,,0.00,Rainwise IP-100,2013-06-06 10:01:00,
2013-06-06 06:06:00,47.5,-40.0,29.96,ENE,67,2.0,2.0,0,0.00,,,0.00,Rainwise IP-100,2013-06-06 10:06:00,
2013-06-06 06:11:00,48.1,-40.0,29.96,ENE,67,1.0,2.0,0,0.00,,,0.00,Rainwise IP-100,2013-06-06 10:11:00,
2013-06-06 06:16:00,49.1,16.0,29.96,ENE,67,1.0,2.0,27,0.00,,,0.00,Rainwise IP-100,2013-06-06 10:16:00,
2013-06-06 06:21:00,49.9,31.0,29.96,ENE,67,0.0,2.0,48,0.00,,,0.00,Rainwise IP-100,2013-06-06 10:21:00,
2013-06-06 06:26:00,50.6,35.0,29.96,ENE,67,0.0,0.0,55,0.00,,,0.00,Rainwise IP-100,2013-06-06 10:26:00,
2013-06-06 06:31:00,50.7,26.0,29.96,ENE,67,0.0,0.0,39,0.00,,,0.00,Rainwise IP-100,2013-06-06 10:31:00,
2013-06-06 06:36:00,50.7,14.0,29.97,ENE,67,0.0,0.0,22,0.00,,,0.00,Rainwise IP-100,2013-06-06 10:36:00,
2013-06-06 06:41:00,50.5,-13.0,29.96,ENE,67,1.0,2.0,6,0.00,,,0.00,Rainwise IP-100,2013-06-06 10:41:00,
2013-06-06 06:46:00,50.3,-40.0,29.97,ENE,67,1.0,2.0,0,0.00,,,0.00,Rainwise IP-100,2013-06-06 10:46:00,
2013-06-06 06:51:00,50.5,-40.0,29.97,ENE,67,1.0,2.0,0,0.00,,,0.00,Rainwise IP-100,2013-06-06 10:51:00,
2013-06-06 06:56:00,50.9,0.0,29.97,ENE,67,0.0,2.0,11,0.00,,,0.00,Rainwise IP-100,2013-06-06 10:56:00,
2013-06-06 07:00:00,51.7,4.0,29.97,ENE,67,0.0,0.0,13,0.00,,,0.00,Rainwise IP-100,2013-06-06 11:00:00,
2013-06-06 07:01:00,51.7,8.0,29.97,ENE,67,0.0,0.0,15,0.00,,,0.00,Rainwise IP-100,2013-06-06 11:01:00,
2013-06-06 07:06:00,52.3,29.0,29.97,NNE,22,0.0,1.0,40,0.00,,,0.00,Rainwise IP-100,2013-06-06 11:06:00,
2013-06-06 07:11:00,53.6,40.0,29.98,NNE,22,1.0,2.0,61,0.00,,,0.00,Rainwise IP-100,2013-06-06 11:11:00,
2013-06-06 07:16:00,54.9,42.0,29.98,NNE,22,2.0,2.0,62,0.00,,,0.00,Rainwise IP-100,2013-06-06 11:16:00,
2013-06-06 07:21:00,55.6,48.0,29.98,NNE,22,2.0,2.0,76,0.00,,,0.00,Rainwise IP-100,2013-06-06 11:21:00,
2013-06-06 07:26:00,56.1,52.0,29.99,NNE,22,1.0,2.0,87,0.00,,,0.00,Rainwise IP-100,2013-06-06 11:26:00,
2013-06-06 07:31:00,56.5,48.0,30.00,ENE,67,1.0,2.0,73,0.00,,,0.00,Rainwise IP-100,2013-06-06 11:31:00,
2013-06-06 07:36:00,56.8,53.0,30.00,ENE,67,2.0,2.0,85,0.00,,,0.00,Rainwise IP-100,2013-06-06 11:36:00,
2013-06-06 07:41:00,57.1,53.0,30.00,ENE,67,0.0,2.0,85,0.00,,,0.00,Rainwise IP-100,2013-06-06 11:41:00,
2013-06-06 07:46:00,57.3,53.5,30.01,ENE,67,0.0,2.0,85,0.00,,,0.00,Rainwise IP-100,2013-06-06 11:46:00,
2013-06-06 07:51:00,57.8,54.0,30.01,ENE,67,0.0,2.0,85,0.00,,,0.00,Rainwise IP-100,2013-06-06 11:51:00,
2013-06-06 07:56:00,58.4,53.5,30.01,NNE,22,2.0,2.0,83,0.00,,,0.00,Rainwise IP-100,2013-06-06 11:56:00,
2013-06-06 08:01:00,58.6,53.0,30.02,NNE,22,0.0,2.0,80,0.00,,,0.00,Rainwise IP-100,2013-06-06 12:01:00,
2013-06-06 08:06:00,58.7,53.5,30.02,ENE,67,2.0,2.0,82,0.00,,,0.00,Rainwise IP-100,2013-06-06 12:06:00,
2013-06-06 08:11:00,58.9,53.5,30.02,ENE,67,2.0,2.0,81,0.00,,,0.00,Rainwise IP-100,2013-06-06 12:11:00,
2013-06-06 08:16:00,59.6,53.5,30.02,ENE,67,0.0,2.0,80,0.00,,,0.00,Rainwise IP-100,2013-06-06 12:16:00,
2013-06-06 08:21:00,60.1,54.0,30.02,NE,45,2.0,3.0,81,0.00,,,0.00,Rainwise IP-100,2013-06-06 12:21:00,
2013-06-06 08:26:00,60.5,53.5,30.03,ENE,67,0.0,2.0,77,0.00,,,0.00,Rainwise IP-100,2013-06-06 12:26:00,
2013-06-06 08:31:00,60.3,53.5,30.03,NNE,22,2.0,2.0,78,0.00,,,0.00,Rainwise IP-100,2013-06-06 12:31:00,
2013-06-06 08:36:00,60.6,56.0,30.04,NNE,22,2.0,2.0,84,0.00,,,0.00,Rainwise IP-100,2013-06-06 12:36:00,
2013-06-06 08:41:00,61.3,56.0,30.04,ENE,67,0.0,4.0,81,0.00,,,0.00,Rainwise IP-100,2013-06-06 12:41:00,
2013-06-06 08:46:00,61.9,53.0,30.04,ENE,67,1.0,4.0,71,0.00,,,0.00,Rainwise IP-100,2013-06-06 12:46:00,
2013-06-06 08:51:00,61.9,54.5,30.04,NNE,22,2.0,4.0,76,0.00,,,0.00,Rainwise IP-100,2013-06-06 12:51:00,
2013-06-06 08:56:00,61.6,53.5,30.04,NNE,22,0.0,4.0,74,0.00,,,0.00,Rainwise IP-100,2013-06-06 12:56:00,
2013-06-06 09:01:00,62.1,54.0,30.04,NNE,22,0.0,2.0,75,0.00,,,0.00,Rainwise IP-100,2013-06-06 13:01:00,
2013-06-06 09:06:00,63.0,51.0,30.04,NNE,22,3.0,4.0,66,0.00,,,0.00,Rainwise IP-100,2013-06-06 13:06:00,
2013-06-06 09:11:00,63.4,53.5,30.05,NNE,22,2.0,5.0,69,0.00,,,0.00,Rainwise IP-100,2013-06-06 13:11:00,
2013-06-06 09:16:00,62.8,56.5,30.06,NNE,22,1.0,2.0,80,0.00,,,0.00,Rainwise IP-100,2013-06-06 13:16:00,
2013-06-06 09:21:00,62.3,55.0,30.05,NNE,22,2.0,3.0,77,0.00,,,0.00,Rainwise IP-100,2013-06-06 13:21:00,
2013-06-06 09:26:00,62.4,56.5,30.05,NNE,22,2.0,4.0,80,0.00,,,0.00,Rainwise IP-100,2013-06-06 13:26:00,
2013-06-06 09:31:00,62.0,56.5,30.05,NNE,22,2.0,2.0,83,0.00,,,0.00,Rainwise IP-100,2013-06-06 13:31:00,
2013-06-06 09:36:00,61.6,56.5,30.04,NNE,22,2.0,4.0,83,0.00,,,0.00,Rainwise IP-100,2013-06-06 13:36:00,
2013-06-06 09:41:00,61.5,55.0,30.04,NNE,22,1.0,3.0,80,0.00,,,0.00,Rainwise IP-100,2013-06-06 13:41:00,
2013-06-06 09:46:00,61.7,56.5,30.05,NNE,22,2.0,3.0,83,0.00,,,0.00,Rainwise IP-100,2013-06-06 13:46:00,
2013-06-06 09:51:00,62.2,56.5,30.05,NNE,22,1.0,3.0,82,0.00,,,0.00,Rainwise IP-100,2013-06-06 13:51:00,
2013-06-06 09:56:00,62.9,56.0,30.04,NNE,22,2.0,2.0,78,0.00,,,0.00,Rainwise IP-100,2013-06-06 13:56:00,
2013-06-06 10:01:00,63.4,54.5,30.05,NNE,22,2.0,2.0,73,0.00,,,0.00,Rainwise IP-100,2013-06-06 14:01:00,
2013-06-06 10:06:00,64.1,57.0,30.05,NNE,22,2.0,4.0,78,0.00,,,0.00,Rainwise IP-100,2013-06-06 14:06:00,
2013-06-06 10:11:00,63.3,56.5,30.05,NNE,22,2.0,4.0,78,0.00,,,0.00,Rainwise IP-100,2013-06-06 14:11:00,
2013-06-06 10:16:00,62.9,56.5,30.05,NNE,22,1.0,4.0,80,0.00,,,0.00,Rainwise IP-100,2013-06-06 14:16:00,
2013-06-06 10:21:00,63.1,56.5,30.06,NNE,22,2.0,4.0,79,0.00,,,0.00,Rainwise IP-100,2013-06-06 14:21:00,
2013-06-06 10:26:00,63.1,56.0,30.06,NNE,22,2.0,4.0,77,0.00,,,0.00,Rainwise IP-100,2013-06-06 14:26:00,
2013-06-06 10:31:00,62.6,55.0,30.06,NNE,22,5.0,6.0,77,0.00,,,0.00,Rainwise IP-100,2013-06-06 14:31:00,
2013-06-06 10:36:00,62.5,56.0,30.06,NNE,22,3.0,6.0,79,0.00,,,0.00,Rainwise IP-100,2013-06-06 14:36:00,
2013-06-06 10:41:00,62.6,54.5,30.06,NNE,22,1.0,5.0,76,0.00,,,0.00,Rainwise IP-100,2013-06-06 14:41:00,
2013-06-06 10:46:00,63.3,56.0,30.06,NNE,22,2.0,3.0,77,0.00,,,0.00,Rainwise IP-100,2013-06-06 14:46:00,
2013-06-06 10:51:00,63.4,57.0,30.06,NNE,22,2.0,2.0,79,0.00,,,0.00,Rainwise IP-100,2013-06-06 14:51:00,
2013-06-06 10:56:00,62.9,57.5,30.06,NNE,22,2.0,3.0,83,0.00,,,0.00,Rainwise IP-100,2013-06-06 14:56:00,
2013-06-06 11:01:00,63.3,57.5,30.06,NNE,22,2.0,4.0,82,0.00,,,0.00,Rainwise IP-100,2013-06-06 15:01:00,
2013-06-06 11:06:00,64.3,58.0,30.06,NNE,22,2.0,3.0,81,0.00,,,0.00,Rainwise IP-100,2013-06-06 15:06:00,
2013-06-06 11:11:00,65.4,56.0,30.06,NNE,22,2.0,4.0,71,0.00,,,0.00,Rainwise IP-100,2013-06-06 15:11:00,
2013-06-06 11:16:00,66.3,53.0,30.06,NNE,22,1.0,4.0,62,0.00,,,0.00,Rainwise IP-100,2013-06-06 15:16:00,
2013-06-06 11:21:00,67.2,60.0,30.06,NNE,22,2.0,2.0,77,0.00,,,0.00,Rainwise IP-100,2013-06-06 15:21:00,
2013-06-06 11:26:00,66.7,57.5,30.07,NNE,22,4.0,6.0,72,0.00,,,0.00,Rainwise IP-100,2013-06-06 15:26:00,
2013-06-06 11:31:00,64.6,58.0,30.07,NNE,22,4.0,7.0,80,0.00,,,0.00,Rainwise IP-100,2013-06-06 15:31:00,
2013-06-06 11:36:00,63.7,54.0,30.06,NNE,22,1.0,6.0,71,0.00,,,0.00,Rainwise IP-100,2013-06-06 15:36:00,
2013-06-06 11:41:00,64.1,54.5,30.06,NNE,22,2.0,2.0,71,0.00,,,0.00,Rainwise IP-100,2013-06-06 15:41:00,
2013-06-06 11:46:00,63.9,54.5,30.06,NNE,22,2.0,4.0,71,0.00,,,0.00,Rainwise IP-100,2013-06-06 15:46:00,
2013-06-06 11:51:00,64.3,56.0,30.06,NNE,22,2.0,4.0,73,0.00,,,0.00,Rainwise IP-100,2013-06-06 15:51:00,
2013-06-06 11:56:00,64.6,54.5,30.06,NNE,22,2.0,3.0,71,0.00,,,0.00,Rainwise IP-100,2013-06-06 15:56:00,
2013-06-06 12:01:00,65.9,51.0,30.06,NNE,22,2.0,3.0,59,0.00,,,0.00,Rainwise IP-100,2013-06-06 16:01:00,
2013-06-06 12:06:00,67.4,49.0,30.06,NNE,22,2.0,4.0,51,0.00,,,0.00,Rainwise IP-100,2013-06-06 16:06:00,
2013-06-06 12:11:00,67.6,53.0,30.06,NNE,22,2.0,5.0,59,0.00,,,0.00,Rainwise IP-100,2013-06-06 16:11:00,
2013-06-06 12:16:00,66.3,51.0,30.06,NNE,22,2.0,5.0,58,0.00,,,0.00,Rainwise IP-100,2013-06-06 16:16:00,
2013-06-06 12:21:00,66.9,44.0,30.06,ENE,67,2.0,6.0,43,0.00,,,0.00,Rainwise IP-100,2013-06-06 16:21:00,
2013-06-06 12:26:00,67.7,43.0,30.06,NNE,22,1.0,6.0,41,0.00,,,0.00,Rainwise IP-100,2013-06-06 16:26:00,
2013-06-06 12:31:00,67.8,43.0,30.06,NNE,22,4.0,4.0,40,0.00,,,0.00,Rainwise IP-100,2013-06-06 16:31:00,
2013-06-06 12:36:00,68.4,42.0,30.06,NNE,22,1.0,5.0,39,0.00,,,0.00,Rainwise IP-100,2013-06-06 16:36:00,
2013-06-06 12:41:00,69.2,42.0,30.06,SSE,157,4.0,4.0,37,0.00,,,0.00,Rainwise IP-100,2013-06-06 16:41:00,
2013-06-06 12:46:00,69.3,44.0,30.06,West,270,4.0,5.0,40,0.00,,,0.00,Rainwise IP-100,2013-06-06 16:46:00,
2013-06-06 12:51:00,69.9,44.0,30.06,ESE,112,5.0,6.0,39,0.00,,,0.00,Rainwise IP-100,2013-06-06 16:51:00,
2013-06-06 12:56:00,70.4,44.0,30.06,ESE,112,3.0,5.0,39,0.00,,,0.00,Rainwise IP-100,2013-06-06 16:56:00,
2013-06-06 13:01:00,70.5,44.0,30.06,SE,135,2.0,6.0,38,0.00,,,0.00,Rainwise IP-100,2013-06-06 17:01:00,
2013-06-06 13:06:00,70.4,41.0,30.07,South,180,0.0,5.0,35,0.00,,,0.00,Rainwise IP-100,2013-06-06 17:06:00,
2013-06-06 13:11:00,69.8,42.0,30.07,NNW,337,1.0,5.0,37,0.00,,,0.00,Rainwise IP-100,2013-06-06 17:11:00,
2013-06-06 13:16:00,69.5,43.0,30.06,WSW,247,0.0,7.0,38,0.00,,,0.00,Rainwise IP-100,2013-06-06 17:16:00,
2013-06-06 13:21:00,70.0,44.0,30.06,South,180,3.0,4.0,39,0.00,,,0.00,Rainwise IP-100,2013-06-06 17:21:00,
2013-06-06 13:26:00,69.6,41.0,30.06,SW,225,2.0,7.0,36,0.00,,,0.00,Rainwise IP-100,2013-06-06 17:26:00,
2013-06-06 13:31:00,68.4,40.0,30.06,WSW,247,6.0,6.0,36,0.00,,,0.00,Rainwise IP-100,2013-06-06 17:31:00,
2013-06-06 13:36:00,68.2,40.0,30.06,WSW,247,2.0,7.0,36,0.00,,,0.00,Rainwise IP-100,2013-06-06 17:36:00,
2013-06-06 13:41:00,68.0,40.0,30.06,WSW,247,2.0,6.0,36,0.00,,,0.00,Rainwise IP-100,2013-06-06 17:41:00,
2013-06-06 13:46:00,68.4,40.0,30.06,WSW,247,2.0,5.0,36,0.00,,,0.00,Rainwise IP-100,2013-06-06 17:46:00,
2013-06-06 13:51:00,68.7,39.0,30.06,WSW,247,1.0,6.0,34,0.00,,,0.00,Rainwise IP-100,2013-06-06 17:51:00,
2013-06-06 13:56:00,69.1,41.0,30.06,ENE,67,4.0,4.0,37,0.00,,,0.00,Rainwise IP-100,2013-06-06 17:56:00,
2013-06-06 14:01:00,68.7,44.0,30.06,ENE,67,4.0,8.0,41,0.00,,,0.00,Rainwise IP-100,2013-06-06 18:01:00,
2013-06-06 14:06:00,68.8,43.0,30.06,NNE,22,2.0,9.0,40,0.00,,,0.00,Rainwise IP-100,2013-06-06 18:06:00,
2013-06-06 14:11:00,68.3,44.0,30.06,ENE,67,2.0,12.0,41,0.00,,,0.00,Rainwise IP-100,2013-06-06 18:11:00,
2013-06-06 14:16:00,68.6,44.0,30.06,ENE,67,2.0,7.0,42,0.00,,,0.00,Rainwise IP-100,2013-06-06 18:16:00,
2013-06-06 14:21:00,69.1,42.0,30.06,ENE,67,2.0,7.0,38,0.00,,,0.00,Rainwise IP-100,2013-06-06 18:21:00,
2013-06-06 14:26:00,69.3,42.0,30.06,ENE,67,2.0,7.0,37,0.00,,,0.00,Rainwise IP-100,2013-06-06 18:26:00,
2013-06-06 14:31:00,69.0,41.0,30.06,SSE,157,2.0,7.0,37,0.00,,,0.00,Rainwise IP-100,2013-06-06 18:31:00,
2013-06-06 14:36:00,68.7,40.0,30.06,ENE,67,2.0,9.0,35,0.00,,,0.00,Rainwise IP-100,2013-06-06 18:36:00,
2013-06-06 14:41:00,68.5,41.0,30.06,ENE,67,1.0,7.0,37,0.00,,,0.00,Rainwise IP-100,2013-06-06 18:41:00,
2013-06-06 14:46:00,68.6,40.0,30.06,NE,45,2.0,5.0,36,0.00,,,0.00,Rainwise IP-100,2013-06-06 18:46:00,
2013-06-06 14:51:00,68.3,41.0,30.06,NE,45,4.0,9.0,37,0.00,,,0.00,Rainwise IP-100,2013-06-06 18:51:00,
2013-06-06 14:56:00,67.9,41.0,30.06,NE,45,5.0,7.0,38,0.00,,,0.00,Rainwise IP-100,2013-06-06 18:56:00,
2013-06-06 15:01:00,68.0,42.0,30.06,NNE,22,3.0,9.0,39,0.00,,,0.00,Rainwise IP-100,2013-06-06 19:01:00,
2013-06-06 15:06:00,67.7,42.0,30.06,ENE,67,6.0,9.0,40,0.00,,,0.00,Rainwise IP-100,2013-06-06 19:06:00,
2013-06-06 15:11:00,67.4,42.0,30.06,ENE,67,2.0,10.0,40,0.00,,,0.00,Rainwise IP-100,2013-06-06 19:11:00,
2013-06-06 15:16:00,67.3,44.0,30.06,ENE,67,4.0,7.0,42,0.00,,,0.00,Rainwise IP-100,2013-06-06 19:16:00,
2013-06-06 15:21:00,67.1,44.0,30.06,ENE,67,2.0,7.0,43,0.00,,,0.00,Rainwise IP-100,2013-06-06 19:21:00,
2013-06-06 15:26:00,66.9,44.0,30.05,ENE,67,4.0,7.0,43,0.00,,,0.00,Rainwise IP-100,2013-06-06 19:26:00,
2013-06-06 15:31:00,67.3,44.0,30.05,ENE,67,2.0,8.0,43,0.00,,,0.00,Rainwise IP-100,2013-06-06 19:31:00,
2013-06-06 15:37:00,67.4,44.0,30.05,ENE,67,3.0,9.0,42,0.00,,,0.00,Rainwise IP-100,2013-06-06 19:37:00,
2013-06-06 15:41:00,67.5,44.0,30.05,ENE,67,2.0,9.0,42,0.00,,,0.00,Rainwise IP-100,2013-06-06 19:41:00,
2013-06-06 15:46:00,67.9,43.0,30.05,ENE,67,2.0,7.0,41,0.00,,,0.00,Rainwise IP-100,2013-06-06 19:46:00,
2013-06-06 15:51:00,67.8,43.0,30.05,ENE,67,7.0,8.0,41,0.00,,,0.00,Rainwise IP-100,2013-06-06 19:51:00,
2013-06-06 15:56:00,67.6,44.0,30.05,ENE,67,2.0,9.0,43,0.00,,,0.00,Rainwise IP-100,2013-06-06 19:56:00,
2013-06-06 16:01:00,67.9,45.0,30.05,ENE,67,1.0,6.0,43,0.00,,,0.00,Rainwise IP-100,2013-06-06 20:01:00,
2013-06-06 16:06:00,67.9,45.0,30.05,ENE,67,6.0,7.0,43,0.00,,,0.00,Rainwise IP-100,2013-06-06 20:06:00,
2013-06-06 16:11:00,67.6,44.0,30.04,ENE,67,2.0,10.0,43,0.00,,,0.00,Rainwise IP-100,2013-06-06 20:11:00,
2013-06-06 16:16:00,67.1,44.0,30.04,ENE,67,1.0,9.0,43,0.00,,,0.00,Rainwise IP-100,2013-06-06 20:16:00,
2013-06-06 16:21:00,67.2,44.0,30.04,NNE,22,2.0,7.0,44,0.00,,,0.00,Rainwise IP-100,2013-06-06 20:21:00,
2013-06-06 16:26:00,66.7,45.0,30.04,ENE,67,5.0,10.0,45,0.00,,,0.00,Rainwise IP-100,2013-06-06 20:26:00,
2013-06-06 16:31:00,66.4,43.0,30.04,ENE,67,2.0,9.0,43,0.00,,,0.00,Rainwise IP-100,2013-06-06 20:31:00,
2013-06-06 16:36:00,66.2,44.0,30.04,ENE,67,2.0,8.0,44,0.00,,,0.00,Rainwise IP-100,2013-06-06 20:36:00,
2013-06-06 16:41:00,66.0,46.0,30.04,ENE,67,5.0,9.0,48,0.00,,,0.00,Rainwise IP-100,2013-06-06 20:41:00,
2013-06-06 16:46:00,65.3,46.0,30.04,ENE,67,4.0,9.0,49,0.00,,,0.00,Rainwise IP-100,2013-06-06 20:46:00,
2013-06-06 16:51:00,65.2,46.0,30.04,ENE,67,2.0,8.0,50,0.00,,,0.00,Rainwise IP-100,2013-06-06 20:51:00,
2013-06-06 16:56:00,64.4,47.0,30.03,ENE,67,2.0,8.0,53,0.00,,,0.00,Rainwise IP-100,2013-06-06 20:56:00,
2013-06-06 17:01:00,64.5,49.0,30.03,ENE,67,6.0,7.0,57,0.00,,,0.00,Rainwise IP-100,2013-06-06 21:01:00,
2013-06-06 17:06:00,63.9,51.0,30.03,ENE,67,2.0,10.0,63,0.00,,,0.00,Rainwise IP-100,2013-06-06 21:06:00,
2013-06-06 17:11:00,63.8,53.5,30.03,ENE,67,4.0,8.0,68,0.00,,,0.00,Rainwise IP-100,2013-06-06 21:11:00,
2013-06-06 17:16:00,63.9,53.5,30.03,ENE,67,4.0,10.0,69,0.00,,,0.00,Rainwise IP-100,2013-06-06 21:16:00,
2013-06-06 17:21:00,63.8,54.5,30.03,ENE,67,3.0,7.0,72,0.00,,,0.00,Rainwise IP-100,2013-06-06 21:21:00,
2013-06-06 17:26:00,63.1,55.0,30.03,ENE,67,2.0,9.0,75,0.00,,,0.00,Rainwise IP-100,2013-06-06 21:26:00,
2013-06-06 17:31:00,62.9,56.0,30.03,ENE,67,2.0,6.0,77,0.00,,,0.00,Rainwise IP-100,2013-06-06 21:31:00,
2013-06-06 17:36:00,61.9,56.5,30.03,ENE,67,5.0,9.0,83,0.00,,,0.00,Rainwise IP-100,2013-06-06 21:36:00,
2013-06-06 17:41:00,61.7,56.5,30.02,ENE,67,2.0,9.0,83,0.00,,,0.00,Rainwise IP-100,2013-06-06 21:41:00,
2013-06-06 17:46:00,61.7,56.5,30.02,ENE,67,3.0,8.0,84,0.00,,,0.00,Rainwise IP-100,2013-06-06 21:46:00,
2013-06-06 17:51:00,61.1,56.0,30.02,ENE,67,4.0,9.0,83,0.00,,,0.00,Rainwise IP-100,2013-06-06 21:51:00,
2013-06-06 17:56:00,61.0,56.0,30.02,ENE,67,0.0,6.0,83,0.00,,,0.00,Rainwise IP-100,2013-06-06 21:56:00,
2013-06-06 18:01:00,60.9,55.0,30.02,ENE,67,2.0,5.0,82,0.00,,,0.00,Rainwise IP-100,2013-06-06 22:01:00,
2013-06-06 18:06:00,60.8,55.0,30.02,ENE,67,0.0,7.0,81,0.00,,,0.00,Rainwise IP-100,2013-06-06 22:06:00,
2013-06-06 18:11:00,60.6,54.0,30.02,ENE,67,1.0,5.0,80,0.00,,,0.00,Rainwise IP-100,2013-06-06 22:11:00,
2013-06-06 18:16:00,60.4,53.5,30.02,ENE,67,3.0,6.0,77,0.00,,,0.00,Rainwise IP-100,2013-06-06 22:16:00,
2013-06-06 18:21:00,60.4,53.5,30.01,ENE,67,2.0,4.0,78,0.00,,,0.00,Rainwise IP-100,2013-06-06 22:21:00,
2013-06-06 18:26:00,60.3,53.5,30.01,ENE,67,0.0,4.0,77,0.00,,,0.00,Rainwise IP-100,2013-06-06 22:26:00,
2013-06-06 18:31:00,60.4,53.5,30.01,ENE,67,2.0,2.0,78,0.00,,,0.00,Rainwise IP-100,2013-06-06 22:31:00,
2013-06-06 18:36:00,60.4,53.5,30.01,ENE,67,2.0,2.0,77,0.00,,,0.00,Rainwise IP-100,2013-06-06 22:36:00,
2013-06-06 18:41:00,60.3,53.0,30.01,ENE,67,0.0,2.0,76,0.00,,,0.00,Rainwise IP-100,2013-06-06 22:41:00,
2013-06-06 18:46:00,60.2,52.0,30.01,ENE,67,2.0,2.0,75,0.00,,,0.00,Rainwise IP-100,2013-06-06 22:46:00,
2013-06-06 18:51:00,60.1,52.0,30.01,ENE,67,1.0,4.0,75,0.00,,,0.00,Rainwise IP-100,2013-06-06 22:51:00,
2013-06-06 18:56:00,60.0,51.0,30.01,ENE,67,0.0,2.0,74,0.00,,,0.00,Rainwise IP-100,2013-06-06 22:56:00,
2013-06-06 19:01:00,59.9,50.5,30.02,ENE,67,1.0,2.0,71,0.00,,,0.00,Rainwise IP-100,2013-06-06 23:01:00,
2013-06-06 19:06:00,59.5,48.0,30.02,ENE,67,1.0,3.0,67,0.00,,,0.00,Rainwise IP-100,2013-06-06 23:06:00,
2013-06-06 19:11:00,59.3,47.5,30.01,ENE,67,2.0,4.0,64,0.00,,,0.00,Rainwise IP-100,2013-06-06 23:11:00,
2013-06-06 19:16:00,59.1,47.0,30.02,ENE,67,3.0,6.0,63,0.00,,,0.00,Rainwise IP-100,2013-06-06 23:16:00,
2013-06-06 19:21:00,58.9,45.0,30.02,ENE,67,0.0,5.0,59,0.00,,,0.00,Rainwise IP-100,2013-06-06 23:21:00,
2013-06-06 19:26:00,58.6,43.0,30.01,ENE,67,2.0,4.0,55,0.00,,,0.00,Rainwise IP-100,2013-06-06 23:26:00,
2013-06-06 19:31:00,57.9,39.0,30.01,ENE,67,1.0,7.0,49,0.00,,,0.00,Rainwise IP-100,2013-06-06 23:31:00,
2013-06-06 19:36:00,57.8,37.0,30.01,ENE,67,2.0,4.0,45,0.00,,,0.00,Rainwise IP-100,2013-06-06 23:36:00,
2013-06-06 19:41:00,57.5,33.0,30.01,ENE,67,1.0,6.0,40,0.00,,,0.00,Rainwise IP-100,2013-06-06 23:41:00,
2013-06-06 19:46:00,57.4,31.0,30.01,ENE,67,2.0,4.0,36,0.00,,,0.00,Rainwise IP-100,2013-06-06 23:46:00,
2013-06-06 19:51:00,57.3,29.0,30.01,ENE,67,0.0,4.0,34,0.00,,,0.00,Rainwise IP-100,2013-06-06 23:51:00,
2013-06-06 19:56:00,57.2,28.0,30.01,ENE,67,2.0,5.0,32,0.00,,,0.00,Rainwise IP-100,2013-06-06 23:56:00,
2013-06-06 20:01:00,56.9,24.0,30.01,ENE,67,2.0,6.0,27,0.00,,,0.00,Rainwise IP-100,2013-06-07 00:01:00,
2013-06-06 20:06:00,56.8,21.0,30.01,ENE,67,2.0,4.0,24,0.00,,,0.00,Rainwise IP-100,2013-06-07 00:06:00,
2013-06-06 20:11:00,56.7,18.0,30.01,ENE,67,1.0,5.0,21,0.00,,,0.00,Rainwise IP-100,2013-06-07 00:11:00,
2013-06-06 20:16:00,56.6,14.0,30.01,ENE,67,2.0,4.0,18,0.00,,,0.00,Rainwise IP-100,2013-06-07 00:16:00,
2013-06-06 20:21:00,56.4,8.0,30.01,ENE,67,0.0,6.0,13,0.00,,,0.00,Rainwise IP-100,2013-06-07 00:21:00,
2013-06-06 20:26:00,56.2,-6.0,30.01,ENE,67,1.0,7.0,6,0.00,,,0.00,Rainwise IP-100,2013-06-07 00:26:00,
2013-06-06 20:31:00,56.0,-40.0,30.02,ENE,67,2.0,7.0,0,0.00,,,0.00,Rainwise IP-100,2013-06-07 00:31:00,
2013-06-06 20:36:00,55.8,-40.0,30.01,ENE,67,0.0,5.0,0,0.00,,,0.00,Rainwise IP-100,2013-06-07 00:36:00,
2013-06-06 20:41:00,55.7,-40.0,30.02,ENE,67,2.0,4.0,0,0.00,,,0.00,Rainwise IP-100,2013-06-07 00:41:00,
2013-06-06 20:46:00,55.6,-40.0,30.01,ENE,67,3.0,4.0,0,0.00,,,0.00,Rainwise IP-100,2013-06-07 00:46:00,
2013-06-06 20:51:00,55.4,-40.0,30.01,ENE,67,1.0,9.0,0,0.00,,,0.00,Rainwise IP-100,2013-06-07 00:51:00,
2013-06-06 20:56:00,55.4,-40.0,30.00,ENE,67,2.0,7.0,0,0.00,,,0.00,Rainwise IP-100,2013-06-07 00:56:00,
2013-06-06 21:01:00,55.4,-40.0,30.01,ENE,67,5.0,5.0,0,0.00,,,0.00,Rainwise IP-100,2013-06-07 01:01:00,
2013-06-06 21:06:00,55.3,-40.0,30.01,ENE,67,1.0,6.0,0,0.00,,,0.00,Rainwise IP-100,2013-06-07 01:06:00,
2013-06-06 21:11:00,55.3,-40.0,30.01,ENE,67,2.0,6.0,0,0.00,,,0.00,Rainwise IP-100,2013-06-07 01:11:00,
2013-06-06 21:16:00,55.4,-40.0,30.01,ENE,67,1.0,6.0,0,0.00,,,0.00,Rainwise IP-100,2013-06-07 01:16:00,
2013-06-06 21:21:00,55.3,-40.0,30.01,ENE,67,4.0,7.0,0,0.00,,,0.00,Rainwise IP-100,2013-06-07 01:21:00,
2013-06-06 21:26:00,55.3,-40.0,30.01,ENE,67,4.0,6.0,0,0.00,,,0.00,Rainwise IP-100,2013-06-07 01:26:00,
2013-06-06 21:31:00,55.3,-40.0,30.00,ENE,67,2.0,5.0,0,0.00,,,0.00,Rainwise IP-100,2013-06-07 01:31:00,
2013-06-06 21:36:00,55.3,-40.0,30.00,ENE,67,2.0,3.0,0,0.00,,,0.00,Rainwise IP-100,2013-06-07 01:36:00,
2013-06-06 21:41:00,55.4,-40.0,30.00,ENE,67,1.0,2.0,0,0.00,,,0.00,Rainwise IP-100,2013-06-07 01:41:00,
2013-06-06 21:46:00,55.4,-40.0,30.00,ENE,67,2.0,3.0,0,0.00,,,0.00,Rainwise IP-100,2013-06-07 01:46:00,
2013-06-06 21:51:00,55.4,-40.0,30.00,ENE,67,2.0,3.0,0,0.00,,,0.00,Rainwise IP-100,2013-06-07 01:51:00,
2013-06-06 21:56:00,55.5,-40.0,29.99,ENE,67,2.0,3.0,0,0.00,,,0.00,Rainwise IP-100,2013-06-07 01:56:00,
2013-06-06 22:01:00,55.6,-40.0,29.99,ENE,67,1.0,2.0,0,0.00,,,0.00,Rainwise IP-100,2013-06-07 02:01:00,
2013-06-06 22:06:00,55.6,-40.0,29.99,ENE,67,2.0,2.0,0,0.00,,,0.00,Rainwise IP-100,2013-06-07 02:06:00,
2013-06-06 22:11:00,55.6,-40.0,29.99,ENE,67,1.0,2.0,0,0.00,,,0.00,Rainwise IP-100,2013-06-07 02:11:00,
2013-06-06 22:16:00,55.6,-40.0,30.00,ENE,67,2.0,2.0,0,0.00,,,0.00,Rainwise IP-100,2013-06-07 02:16:00,
2013-06-06 22:21:00,55.6,-40.0,30.00,ENE,67,4.0,4.0,0,0.00,,,0.00,Rainwise IP-100,2013-06-07 02:21:00,
2013-06-06 22:26:00,55.7,-40.0,30.00,ENE,67,0.0,4.0,0,0.00,,,0.00,Rainwise IP-100,2013-06-07 02:26:00,
2013-06-06 22:31:00,55.7,4.0,29.99,ENE,67,0.0,4.0,10,0.00,,,0.00,Rainwise IP-100,2013-06-07 02:31:00,
2013-06-06 22:36:00,55.6,4.0,30.00,ENE,67,1.0,2.0,11,0.00,,,0.00,Rainwise IP-100,2013-06-07 02:36:00,
2013-06-06 22:41:00,55.6,0.0,30.00,ENE,67,1.0,3.0,9,0.00,,,0.00,Rainwise IP-100,2013-06-07 02:41:00,
2013-06-06 22:46:00,55.6,4.0,29.99,ENE,67,2.0,5.0,10,0.00,,,0.00,Rainwise IP-100,2013-06-07 02:46:00,
2013-06-06 22:51:00,55.5,4.0,29.99,ENE,67,2.0,4.0,10,0.00,,,0.00,Rainwise IP-100,2013-06-07 02:51:00,
2013-06-06 22:56:00,55.4,0.0,29.99,ENE,67,0.0,2.0,10,0.00,,,0.00,Rainwise IP-100,2013-06-07 02:56:00,
2013-06-06 23:01:00,55.4,0.0,29.99,ENE,67,1.0,2.0,10,0.00,,,0.00,Rainwise IP-100,2013-06-07 03:01:00,
2013-06-06 23:06:00,55.4,-6.0,29.99,ENE,67,0.0,2.0,7,0.00,,,0.00,Rainwise IP-100,2013-06-07 03:06:00,
2013-06-06 23:11:00,55.3,0.0,29.99,ENE,67,1.0,2.0,8,0.00,,,0.00,Rainwise IP-100,2013-06-07 03:11:00,
2013-06-06 23:16:00,55.3,-13.0,29.99,ENE,67,2.0,2.0,5,0.00,,,0.00,Rainwise IP-100,2013-06-07 03:16:00,
2013-06-06 23:21:00,55.2,-13.0,29.99,ENE,67,2.0,2.0,5,0.00,,,0.00,Rainwise IP-100,2013-06-07 03:21:00,
2013-06-06 23:26:00,55.2,-13.0,29.99,ENE,67,2.0,3.0,4,0.00,,,0.00,Rainwise IP-100,2013-06-07 03:26:00,
2013-06-06 23:31:00,55.1,-23.0,29.99,ENE,67,1.0,4.0,3,0.00,,,0.00,Rainwise IP-100,2013-06-07 03:31:00,
2013-06-06 23:36:00,55.2,-13.0,29.98,ENE,67,1.0,5.0,4,0.00,,,0.00,Rainwise IP-100,2013-06-07 03:36:00,
2013-06-06 23:41:00,55.2,-23.0,29.98,ENE,67,2.0,3.0,2,0.00,,,0.00,Rainwise IP-100,2013-06-07 03:41:00,
2013-06-06 23:46:00,55.2,-40.0,29.98,ENE,67,2.0,2.0,1,0.00,,,0.00,Rainwise IP-100,2013-06-07 03:46:00,
2013-06-06 23:51:00,55.1,-40.0,29.98,ENE,67,2.0,3.0,1,0.00,,,0.00,Rainwise IP-100,2013-06-07 03:51:00,
2013-06-06 23:56:00,55.1,-40.0,29.98,ENE,67,2.0,2.0,0,0.00,,,0.00,Rainwise IP-100,2013-06-07 03:56:00,